Platteville, WI

11:42 AM CDT on June 29, 2017 (GMT -0500)
Platteville Municipal

Weather History for KPVB - October, 2013

Change the Weather History Date:

Saturday, October 5, 2013

  Actual Average (KDBQ) Record (KDBQ)
Temperature  
Mean Temperature 61 °F -  
Max Temperature 73 °F 63 °F 87 °F (1922)
Min Temperature 49 °F 44 °F 25 °F (1952)
Degree Days  
Heating Degree Days 4    
Growing Degree Days 11 (Base 50)    
Moisture  
Dew Point 61 °F    
Average Humidity 85    
Maximum Humidity 95    
Minimum Humidity 63    
Precipitation  
Precipitation 0.00 in - - ()
Sea Level Pressure  
Sea Level Pressure 29.84 in    
Wind  
Wind Speed 9 mph (South)    
Max Wind Speed 17 mph    
Max Gust Speed 21 mph    
Visibility 7 miles    
Events      
Averages and records for this station are not official NWS values.
T = Trace of Precipitation, MM = Missing Value Source: NWS Daily Summary

Daily Weather History Graph

Daily Weather History Graph

Search for Another Location

Airport or City:

Trip Planner

Search our weather history database for the weather conditions in past years. The results will help you decide how hot, cold, wet, or windy it might be!

Date:

Astronomy

Oct. 05, 2013 Rise Set
Actual Time 7:03 AM CDT 6:35 PM CDT
Civil Twilight 6:35 AM CDT 7:03 PM CDT
Nautical Twilight 6:02 AM CDT 7:36 PM CDT
Astronomical Twilight 5:29 AM CDT 8:09 PM CDT
Moon 7:44 AM CDT (10/5) 6:52 PM CDT (10/5)
Length of Visible Light 12h 28m
Length of Day
11h 31m
New Moon, 1% of the Moon is Illuminated
Oct 5
New Moon
Oct 11
First Quarter
Oct 18
Full
Oct 26
Last Quarter
Nov 3
New

Hourly Weather History & Observations

Time (CDT) Temp. Dew Point Humidity Pressure Visibility Wind Dir Wind Speed Gust Speed Precip Events Conditions
12:15 AM 68.0 °F 66.2 °F 94% 29.89 in 2.5 mi ESE 15.0 mph 19.6 mph N/A   Overcast
12:35 AM 67.5 °F 65.7 °F 94% 29.89 in 2.0 mi ESE 16.1 mph - N/A   Overcast
12:55 AM 67.1 °F 65.3 °F 94% 29.89 in 1.8 mi ESE 10.4 mph - N/A   Overcast
1:15 AM 66.7 °F 65.3 °F 95% 29.89 in 2.0 mi ESE 9.2 mph - N/A   Mostly Cloudy
1:35 AM 66.6 °F 64.9 °F 95% 29.89 in 2.0 mi ESE 10.4 mph - N/A   Scattered Clouds
1:55 AM 66.2 °F 64.6 °F 94% 29.89 in 2.0 mi East 6.9 mph - N/A   Clear
2:15 AM 65.8 °F 64.4 °F 95% 29.89 in 1.8 mi East 9.2 mph - N/A   Unknown
2:35 AM 66.2 °F 64.6 °F 94% 29.87 in 2.5 mi ESE 9.2 mph - N/A   Scattered Clouds
2:55 AM 66.9 °F 65.3 °F 95% 29.87 in 3.0 mi ESE 8.1 mph - N/A   Mostly Cloudy
3:15 AM 67.3 °F 65.3 °F 93% 29.87 in 5.0 mi ESE 5.8 mph - N/A   Mostly Cloudy
3:35 AM 67.6 °F 65.3 °F 92% 29.87 in 7.0 mi SE 3.5 mph - N/A   Scattered Clouds
3:55 AM 67.5 °F 65.3 °F 93% 29.87 in 7.0 mi ESE 4.6 mph - N/A   Scattered Clouds
4:15 AM 66.6 °F 64.4 °F 93% 29.87 in 5.0 mi East 6.9 mph - N/A   Clear
4:35 AM 66.6 °F 64.6 °F 93% 29.87 in 5.0 mi SE 4.6 mph - N/A   Clear
4:55 AM 65.8 °F 63.7 °F 93% 29.87 in 4.0 mi East 4.6 mph - N/A   Clear
5:15 AM 65.5 °F 63.7 °F 94% 29.88 in 3.0 mi East 5.8 mph - N/A   Clear
5:35 AM 65.5 °F 63.7 °F 94% 29.86 in 3.0 mi East 9.2 mph - N/A   Clear
5:55 AM 65.5 °F 63.9 °F 94% 29.86 in 3.0 mi East 5.8 mph - N/A   Clear
6:15 AM 65.3 °F 63.7 °F 94% 29.88 in 3.0 mi Calm Calm - N/A   Clear
6:35 AM 65.7 °F 64.0 °F 94% 29.88 in 4.0 mi Calm Calm - N/A   Clear
6:55 AM 65.1 °F 63.5 °F 94% 29.88 in 3.0 mi Calm Calm - N/A   Scattered Clouds
7:15 AM 65.3 °F 63.7 °F 94% 29.87 in 2.5 mi Calm Calm - N/A   Scattered Clouds
7:35 AM 65.3 °F 63.5 °F 94% 29.87 in 1.2 mi East 3.5 mph - N/A   Scattered Clouds
7:55 AM 65.8 °F 64.4 °F 95% 29.87 in 2.5 mi East 5.8 mph - N/A   Clear
8:15 AM 66.2 °F 64.6 °F 94% 29.87 in 2.5 mi ESE 4.6 mph - N/A   Clear
8:35 AM 67.1 °F 65.3 °F 94% 29.87 in 3.0 mi ESE 3.5 mph - N/A   Clear
8:55 AM 68.0 °F 66.4 °F 95% 29.87 in 4.0 mi SE 6.9 mph - N/A   Scattered Clouds
9:15 AM 68.4 °F 66.6 °F 94% 29.88 in 5.0 mi SSE 5.8 mph - N/A   Mostly Cloudy
9:35 AM 69.3 °F 67.3 °F 93% 29.88 in 7.0 mi South 8.1 mph - N/A   Overcast
9:55 AM 69.8 °F 67.5 °F 92% 29.88 in 7.0 mi South 8.1 mph - N/A   Overcast
10:15 AM 69.8 °F 67.5 °F 92% 29.88 in 7.0 mi South 8.1 mph - N/A   Overcast
10:35 AM 70.7 °F 67.6 °F 90% 29.88 in 10.0 mi South 8.1 mph - N/A   Mostly Cloudy
10:55 AM 71.1 °F 67.3 °F 88% 29.88 in 10.0 mi South 9.2 mph - N/A   Mostly Cloudy
11:15 AM 71.6 °F 66.6 °F 84% 29.87 in 10.0 mi South 9.2 mph - N/A   Mostly Cloudy
11:35 AM 70.9 °F 66.6 °F 86% 29.87 in 10.0 mi South 6.9 mph - N/A   Scattered Clouds
11:55 AM 70.9 °F 67.1 °F 88% 29.87 in 10.0 mi South 4.6 mph - N/A   Scattered Clouds
12:15 PM 70.7 °F 66.7 °F 87% 29.87 in 10.0 mi South 8.1 mph - N/A   Clear
12:35 PM 70.3 °F 66.6 °F 88% 29.87 in 10.0 mi SSE 6.9 mph - N/A   Scattered Clouds
12:55 PM 70.7 °F 67.3 °F 89% 29.85 in 10.0 mi SE 6.9 mph - N/A   Scattered Clouds
1:15 PM 70.3 °F 67.6 °F 91% 29.85 in 7.0 mi SSE 8.1 mph - N/A   Mostly Cloudy
1:35 PM 70.7 °F 67.6 °F 90% 29.84 in 10.0 mi SSE 10.4 mph - N/A   Mostly Cloudy
1:55 PM 71.6 °F 67.8 °F 88% 29.83 in 10.0 mi SSE 11.5 mph - N/A   Scattered Clouds
2:15 PM 71.8 °F 67.1 °F 85% 29.82 in 10.0 mi SSE 12.7 mph - N/A   Scattered Clouds
2:35 PM 72.1 °F 66.6 °F 83% 29.81 in 10.0 mi South 16.1 mph - N/A   Mostly Cloudy
2:55 PM 72.9 °F 66.2 °F 80% 29.80 in 10.0 mi South 12.7 mph - N/A   Scattered Clouds
3:15 PM 73.0 °F 64.9 °F 76% 29.78 in 10.0 mi South 12.7 mph - N/A   Scattered Clouds
3:35 PM 72.5 °F 64.4 °F 76% 29.78 in 10.0 mi South 17.3 mph - N/A   Mostly Cloudy
3:55 PM 72.9 °F 64.4 °F 75% 29.77 in 10.0 mi South 15.0 mph 18.4 mph N/A   Mostly Cloudy
4:15 PM 72.0 °F 64.0 °F 76% 29.77 in 10.0 mi SSW 12.7 mph 17.3 mph N/A   Mostly Cloudy
4:35 PM 71.2 °F 62.6 °F 74% 29.78 in 10.0 mi SSW 11.5 mph 19.6 mph N/A   Overcast
4:55 PM 72.5 °F 63.3 °F 73% 29.77 in 10.0 mi SSW 9.2 mph - N/A   Mostly Cloudy
5:15 PM 70.7 °F 62.1 °F 74% 29.77 in 10.0 mi SSW 13.8 mph 19.6 mph N/A   Mostly Cloudy
5:35 PM 69.1 °F 61.3 °F 76% 29.77 in 10.0 mi SSW 16.1 mph 20.7 mph N/A   Overcast
5:55 PM 68.0 °F 60.3 °F 76% 29.78 in 10.0 mi SSW 11.5 mph - N/A   Overcast
6:15 PM 67.1 °F 59.7 °F 77% 29.78 in 10.0 mi SSW 12.7 mph - N/A   Overcast
6:35 PM 65.7 °F 56.7 °F 73% 29.78 in 10.0 mi SW 12.7 mph - N/A   Overcast
6:55 PM 64.6 °F 54.9 °F 71% 29.79 in 10.0 mi WSW 13.8 mph 19.6 mph N/A   Overcast
7:15 PM 62.6 °F 54.1 °F 74% 29.79 in 10.0 mi WSW 9.2 mph - N/A   Mostly Cloudy
7:35 PM 61.2 °F 54.0 °F 77% 29.79 in 10.0 mi SW 4.6 mph - N/A   Clear
7:55 PM 60.8 °F 53.6 °F 77% 29.80 in 10.0 mi SW 8.1 mph - N/A   Scattered Clouds
8:15 PM 60.8 °F 52.7 °F 75% 29.79 in 10.0 mi SW 6.9 mph - N/A   Overcast
8:35 PM 60.3 °F 51.4 °F 73% 29.81 in 10.0 mi SW 11.5 mph 16.1 mph N/A   Overcast
8:55 PM 59.0 °F 46.4 °F 63% 29.81 in 10.0 mi SW 10.4 mph - N/A   Mostly Cloudy
9:15 PM 57.2 °F 45.3 °F 65% 29.82 in 10.0 mi WSW 10.4 mph - N/A   Scattered Clouds
9:35 PM 55.6 °F 43.0 °F 63% 29.82 in 10.0 mi SW 8.1 mph 16.1 mph N/A   Clear
9:55 PM 53.8 °F 43.2 °F 67% 29.81 in 10.0 mi WSW 5.8 mph - N/A   Clear
10:15 PM 52.2 °F 43.2 °F 71% 29.81 in 10.0 mi SW 4.6 mph - N/A   Clear
10:35 PM 51.4 °F 42.4 °F 71% 29.81 in 10.0 mi SW 5.8 mph - N/A   Clear
10:55 PM 50.4 °F 43.0 °F 76% 29.82 in 10.0 mi SW 3.5 mph - N/A   Clear
11:15 PM 49.1 °F 43.0 °F 79% 29.81 in 10.0 mi SW 5.8 mph - N/A   Clear
11:35 PM 50.9 °F 41.5 °F 70% 29.81 in 10.0 mi West 9.2 mph - N/A   Clear
11:55 PM 49.5 °F 40.6 °F 72% 29.81 in 10.0 mi West 6.9 mph - N/A   Clear